Location: Janów
(51.4238°N, 19.2028°E)
Time: 08:01:15
(UTC+00:00)

Daily predictions for brighter satellites

Satellite Brightness Start Highest point End
(mag) Time Altitude Azimuth Time Altitude Azimuth Time Altitude Azimuth
NOSS 3-4 (C) 4.2 18:53:16 10° NW 18:59:37 58° NE 19:07:06 10° ESE
DEBRIS 3.1 18:58:14 10° SW 19:00:53 52° SSE 19:07:34 10° E
Meteor 2-12 Rocket 4.5 18:56:05 10° N 19:02:12 82° ENE 19:08:18 10° SSE
Cosmos 2237 4.4 18:56:31 10° NNW 19:02:17 78° WSW 19:08:01 10° SSE
Cosmos 2082 Rocket 2.2 18:58:04 10° SSW 19:03:45 73° ESE 19:09:28 10° NNE
Cosmos 2016 Rocket 4.0 18:58:22 10° S 19:04:36 81° E 19:10:47 10° NNE
Cosmos 2369 4.1 19:01:07 10° NW 19:06:48 66° WSW 19:12:27 10° SSE
ATLAS 2AS CENTAUR R/B 4.2 19:02:30 10° W 19:08:58 41° NNW 19:15:21 10° NE
CZ-4C R/B 2.9 19:08:45 10° WSW 19:13:07 54° NW 19:18:51 10° NE
CZ-4B R/B 3.6 19:15:32 10° SE 19:18:32 30° ENE 19:21:38 10° N
Cosmos 2151 3.3 19:14:48 10° N 19:18:48 47° ENE 19:22:45 10° SSE
USA 306 2.4 19:17:21 10° W 19:20:33 55° NNW 19:22:42 10° ENE
Cosmos 2098 Rocket 4.4 19:17:19 10° SE 19:20:51 22° E 19:24:01 10° NE
Cosmos 1626 Rocket 3.6 19:19:22 10° N 19:23:45 72° ENE 19:28:08 10° SSE
Ariane Rocket 3.8 19:19:16 10° SE 19:23:55 39° ENE 19:28:37 10° N
Cosmos 2278 3.9 19:19:22 10° NNW 19:25:06 68° ENE 19:30:44 10° SE
Cosmos 1782 3.4 19:25:27 10° SSW 19:28:52 51° WNW 19:32:20 10° N
Spot 2 Rocket 3.6 19:24:07 10° SSE 19:29:08 84° WSW 19:34:13 10° NNW
SL-16 R/B 2.3 19:23:29 10° NNW 19:29:13 87° ENE 19:34:53 10° SSE
Cosmos 1607 4.3 19:24:57 10° SW 19:31:08 74° NW 19:37:28 10° NE
ERS-1 Rocket 4.2 19:27:44 10° SSW 19:32:26 41° W 19:37:12 10° NNW
SPOT 3 Rocket 3.8 19:28:57 10° SSE 19:33:59 58° ENE 19:39:02 10° N
MOS 1-B 4.5 19:31:13 10° SSE 19:37:01 81° WSW 19:42:52 10° NNW
Cosmos 1980 Rocket 4.4 19:38:37 10° NW 19:42:45 21° W 19:46:52 10° SSW
Cosmos 2061 Rocket 4.1 19:37:45 10° S 19:44:00 84° W 19:50:23 10° N
CZ-4 R/B 3.9 19:42:49 10° SW 19:45:02 15° W 19:47:18 10° NW
USA 186 1.9 19:42:56 10° S 19:45:37 54° W 19:48:21 10° NNW
Cosmos 2228 3.9 19:42:43 10° SSW 19:46:41 47° WNW 19:50:40 10° N
USA 290 3.7 19:45:44 16° SE 19:46:56 19° ESE 19:49:14 10° ENE
SL-08 R/B 3.6 19:42:09 10° NNE 19:46:59 73° WNW 19:51:41 10° SSW
COSMOS 2406 3.2 19:41:55 10° SSW 19:47:39 77° ESE 19:53:25 10° NNE
CZ-4B R/B 3.5 19:43:25 12° SSE 19:47:41 61° ENE 19:52:30 10° N
Cosmos 1933 3.2 19:45:25 10° S 19:49:08 61° E 19:52:55 10° NNE
ISS -3.7 19:48:03 10° W 19:51:24 84° N 19:54:45 10° E
NOSS 3 (A) 4.0 19:49:21 10° NW 19:51:34 74° SW 19:53:22 19° SE
Cosmos 1461 2.4 19:48:04 10° SSW 19:51:44 70° SE 19:55:25 10° NE
Cosmos 1992 Rocket 4.2 19:46:42 10° SSW 19:51:54 75° WNW 19:57:08 10° NNE
Terra 3.5 19:48:55 10° SSW 19:53:00 29° W 19:57:07 10° NNW
Meteor 1-20 Rocket 4.3 19:47:55 10° NNW 19:53:32 80° W 19:59:13 10° S
Okean 1 4.4 19:51:56 16° SE 19:53:47 23° E 19:56:41 10° NE
Okean O Rocket 2.4 19:53:16 10° S 19:57:24 47° W 20:01:35 10° NNW
Cosmos 1777 Rocket 4.0 19:53:44 10° NNW 19:59:00 78° ENE 20:03:12 16° SSE
Cosmos 2333 Rocket 2.5 19:53:49 10° NW 19:59:29 67° WSW 20:04:29 13° SSE
Cosmos 1544 Rocket 3.7 20:00:50 10° SSW 20:05:09 72° WNW 20:09:29 10° N
NOSS 3-3 (A) 4.2 20:00:43 10° WSW 20:06:02 68° NW 20:12:32 10° NE
Cosmos 1437 Rocket 2.7 20:04:05 10° SSW 20:07:38 75° WNW 20:11:16 10° N
Cosmos 1503 Rocket 4.0 20:03:45 10° NNW 20:08:58 74° ENE 20:12:49 18° SSE
Cosmos 2360 Rocket 2.2 20:03:52 10° NNW 20:09:35 89° WSW 20:13:59 17° SSE
Okean 1-7 Rocket 3.6 20:05:14 10° N 20:09:42 69° ENE 20:13:00 18° SSE
Cosmos 2034 Rocket 4.4 20:13:54 16° SSE 20:18:44 48° E 20:24:45 10° NNE
Cosmos 2333 4.2 20:13:49 10° NNW 20:19:34 89° WSW 20:23:47 19° SSE
Okean-O 4.2 20:15:50 10° SSW 20:19:43 31° W 20:23:38 10° NNW
Cosmos 1486 Rocket 4.2 20:14:39 10° NNW 20:19:54 67° WSW 20:23:55 17° S
Cosmos 2219 Rocket 2.3 20:16:39 10° NNW 20:22:21 76° ENE 20:26:24 20° SE
CZ-2C R/B 1.8 20:21:09 28° SSE 20:22:27 88° WSW 20:25:14 10° NNW
Cosmos 1766 4.1 20:19:58 10° NNE 20:22:47 26° ENE 20:24:01 21° ESE
Cosmos 1354 Rocket 4.1 20:18:41 10° NNW 20:23:57 69° ENE 20:27:29 21° SE
Nadezhda 4 Rocket 4.0 20:24:30 10° N 20:30:39 87° W 20:35:26 18° S
IRS-1C Rocket 4.4 20:27:08 16° S 20:31:23 64° WSW 20:36:39 10° NNW
Cosmos 540 Rocket 3.8 20:28:07 18° S 20:31:38 47° ESE 20:36:33 10° NE
Cosmos 1825 Rocket 3.5 20:29:42 10° NNW 20:34:03 83° W 20:36:52 22° S
Cosmos 1805 3.6 20:31:27 10° NNW 20:34:36 44° W 20:36:34 19° SSW
Cosmos 220 Rocket 4.4 20:33:57 10° SW 20:37:58 59° WNW 20:42:03 10° NNE
Meteor 2-10 4.4 20:32:49 10° NNW 20:38:33 71° W 20:42:50 18° S
Aureole 1 Rocket 4.1 20:34:09 10° NNW 20:39:49 65° ENE 20:44:26 21° SE
Cosmos 1953 Rocket 3.5 20:36:30 10° N 20:40:51 70° ENE 20:43:09 27° SSE
Helios 1A 3.8 20:37:46 10° NNE 20:41:16 30° E 20:42:24 26° SE
Cosmos 2322 Rocket 2.7 20:36:30 10° NW 20:41:58 51° WSW 20:45:49 19° S
RESURS DK-1 3.5 20:39:27 10° NNW 20:43:08 34° NE 20:45:33 18° ESE
USA 306 2.4 20:45:25 10° WNW 20:47:38 33° N 20:47:38 33° N
Cosmos 2082 Rocket 4.3 20:43:28 10° W 20:48:23 29° NW 20:53:18 10° NNE
Cosmos 2195 Rocket 4.5 20:42:39 10° N 20:48:55 89° E 20:53:05 22° S
TSX-5 3.9 20:46:54 10° NNW 20:49:56 46° NE 20:51:15 28° ESE
NOSS 3-4 (A) 4.3 20:43:29 10° NW 20:49:57 49° WSW 20:55:06 20° S
NOSS 3-4 (C) 4.3 20:44:06 10° NW 20:50:36 50° WSW 20:55:45 20° S
Cosmos 1707 2.3 20:52:04 42° ESE 20:52:18 43° E 20:55:01 10° NNE
CZ-4B R/B 4.4 20:49:58 12° SW 20:52:20 23° W 20:55:09 10° NW
Cosmos 2026 Rocket 4.0 20:46:32 10° N 20:52:58 82° E 20:57:08 23° SSE
Geosat 4.5 20:48:38 10° NE 20:53:22 40° ESE 20:55:36 26° SSE
Cosmos 2058 Rocket 3.4 20:53:53 29° SSE 20:55:41 48° E 20:59:53 10° NNE
Cosmos 2098 Rocket 3.9 20:53:27 10° SSW 20:57:58 47° WNW 21:01:52 10° N
Cosmos 1076 Rocket 3.7 20:53:51 10° NNW 20:58:04 64° W 21:00:20 26° S
Cosmos 44 3.5 20:54:24 10° NW 20:59:50 81° SW 21:02:45 27° SSE
Cosmos 2237 Rocket 3.6 20:55:25 10° NNW 21:00:27 31° NE 21:05:22 10° ESE
CZ-4C R/B 4.4 20:58:11 10° WNW 21:02:37 27° N 21:08:07 10° NE
Ariane Rocket 4.2 20:59:02 14° SSW 21:02:50 36° W 21:07:30 10° NNW
SL-16 R/B 4.2 21:08:45 10° WNW 21:12:33 19° W 21:16:21 10° SW
Meteor 1-26 Rocket 4.2 21:09:41 23° S 21:13:16 84° E 21:19:01 10° NNE
COSMOS 2428 2.9 21:08:35 10° NNW 21:14:17 67° ENE 21:17:37 25° SE
Cosmos 1470 2.9 21:12:18 10° N 21:15:28 42° ENE 21:16:07 37° ESE
Cosmos 1763 Rocket 3.7 21:10:52 12° SSW 21:15:43 75° WNW 21:21:01 10° NNE
ARIANE 5 R/B 3.4 21:15:19 26° ESE 21:17:20 42° ENE 21:21:34 10° N
ALOS 2 3.6 21:17:23 24° ESE 21:19:23 37° ENE 21:23:26 10° N
USA 290 3.9 21:18:07 11° WSW 21:20:51 31° WNW 21:23:43 10° N
Cosmos 1898 Rocket 3.5 21:16:36 10° NNW 21:21:48 73° ENE 21:24:23 30° SE
Meteor 1-11 Rocket 4.5 21:19:19 10° N 21:24:43 43° ENE 21:27:43 24° SE
Helios 1B rocket 1.9 21:24:22 49° SSE 21:25:14 86° ENE 21:28:46 10° NNW
Meteor 2-2 Rocket 4.2 21:22:13 25° S 21:25:42 88° ESE 21:31:33 10° NNE
ISS -3.8 21:24:51 10° W 21:28:09 57° SSW 21:28:15 57° SSW
BREEZE-M DEB (TANK) 3.7 21:27:56 10° W 21:28:12 12° W 21:28:12 12° W
Cosmos 1536 3.1 21:32:19 10° NNW 21:35:56 52° W 21:36:59 38° SSW
CSL-04 DEB 4.0 21:36:01 51° S 21:36:51 83° WSW 21:40:31 10° NNW
SAR-Lupe-2 4.5 21:37:46 30° E 21:38:29 34° ENE 21:41:32 10° N
Cosmos-2242 3.5 21:37:47 26° SW 21:39:52 52° WNW 21:43:55 10° N
Cosmos 1092 Rocket 4.4 21:35:43 10° NNW 21:41:44 56° W 21:45:20 24° SSW
Cosmos 2333 Rocket 4.5 21:40:29 10° WNW 21:42:41 12° W 21:44:52 10° WSW
NOSS 0 Rocket 3.9 21:37:15 10° NNW 21:43:29 84° ENE 21:46:51 29° SE
KORONAS-FOTON 3.8 21:43:53 43° SW 21:44:43 60° WNW 21:48:05 10° N
Cosmos 2297 Rocket 3.1 21:46:14 28° SE 21:47:45 32° ESE 21:52:42 10° NE
Cosmos 841 Rocket 3.6 21:47:27 36° S 21:49:26 60° ESE 21:54:36 10° NNE
Meteor 1-14 Rocket 4.1 21:46:37 10° NNW 21:52:12 81° W 21:54:40 34° S
Cosmos 2360 Rocket 4.2 21:49:09 10° WNW 21:52:46 18° W 21:55:44 12° SW
Cosmos 1842 3.1 21:56:49 49° WSW 21:57:14 55° WNW 22:00:22 10° N
Cosmos 2322 3.9 21:52:22 10° NW 21:57:58 59° WSW 22:00:18 34° S
Cosmos 1975 2.5 21:54:54 10° NNW 21:58:35 75° W 21:59:14 56° SSW
Spot 4 3.8 21:57:15 39° S 21:59:02 84° WSW 22:03:52 10° NNW
ACS3 Solar Sail 3.7 21:56:10 10° NE 21:59:37 16° E 22:02:41 11° ESE
Meteor 2-6 Rocket 4.4 21:58:28 27° SSW 22:01:53 74° WNW 22:07:52 10° N
Cosmos 1812 Rocket 3.6 22:02:59 44° SSE 22:04:13 67° E 22:08:38 10° NNE
Cosmos 2221 2.3 22:03:18 47° S 22:04:28 89° E 22:08:42 10° N
NOSS 8 (E) 4.5 22:02:37 10° NW 22:05:30 57° NE 22:05:53 51° ENE
Cosmos 2219 Rocket 3.8 22:01:28 10° NW 22:05:41 22° WSW 22:08:05 17° SW
Cosmos 1271 Rocket 2.9 22:06:21 44° WSW 22:07:01 53° WNW 22:10:21 10° N
MetOp-A 4.2 22:05:00 31° SE 22:07:05 55° ENE 22:11:36 10° N
Helios 1A 4.4 22:12:28 10° N 22:15:55 29° WNW 22:18:07 17° WSW
ARGOS Delta rocket 4.0 22:11:07 10° NNE 22:16:18 85° ESE 22:18:32 37° S
Cosmos 2279 Rocket 4.3 22:16:39 26° SSW 22:20:18 63° WNW 22:26:33 10° N
RESURS DK-1 3.2 22:16:53 10° NW 22:20:26 32° WSW 22:20:45 31° WSW
Meteor 2-20 4.5 22:19:22 34° S 22:22:08 70° E 22:28:11 10° NNE
NOSS 8 (F) 4.1 22:19:24 10° NW 22:22:19 75° NE 22:22:21 75° NE
Cosmos 858 Rocket 4.5 22:21:01 10° NNW 22:26:10 68° WSW 22:27:57 40° S
Meteor 1-19 Rocket 4.4 22:24:38 31° SSW 22:27:31 76° WNW 22:33:31 10° N
Cosmos 1937 Rocket 3.9 22:23:40 10° NW 22:28:35 46° WSW 22:30:09 35° SSW
CZ-2C R/B 4.2 22:27:55 10° N 22:32:15 52° WNW 22:34:15 29° SW
SL-16 R/B 3.3 22:28:14 10° NNW 22:33:38 41° NE 22:38:56 10° ESE
GP-B 3.0 22:30:34 10° N 22:34:58 83° W 22:36:11 47° S
CZ-2C R/B 2.6 22:39:09 35° SSE 22:41:27 79° ENE 22:46:40 10° NNW
Lacrosse 4 Rocket 1.6 22:42:44 45° SE 22:43:03 47° ESE 22:46:59 10° NE
Cosmos 2237 Rocket 2.2 22:39:19 10° NW 22:44:57 65° WSW 22:47:09 37° S
USA 234 3.3 22:39:48 10° ENE 22:46:14 56° SE 22:49:36 29° SSW
SeaSat 1 3.0 22:42:55 19° ESE 22:46:20 54° NE 22:51:07 10° NNW
Cosmos 2266 Rocket 4.2 22:41:53 10° NNW 22:47:45 55° W 22:50:26 31° SSW
Cosmos 1980 3.9 22:43:37 10° NW 22:49:10 57° WSW 22:51:12 37° S
CZ-4C R/B 4.4 22:47:18 10° NW 22:52:35 32° NNE 22:59:10 10° E
Intercosmos 24 3.9 22:49:14 10° NNW 22:53:01 55° W 22:53:29 50° SW
ARIANE 5 R/B 4.0 22:52:41 24° WSW 22:53:47 26° W 22:57:35 10° NW
ATLAS 2AS CENTAUR R/B 3.8 22:47:39 10° NW 22:54:07 44° NNE 23:00:33 10° E
ALOS 2 3.8 22:54:46 27° WSW 22:55:48 30° W 22:59:40 10° NNW
Cosmos 2227 Rocket 2.7 22:55:49 33° SSE 22:57:49 46° ESE 23:03:14 10° NE
COSMOS 2428 4.0 22:53:29 10° NW 22:58:02 25° WSW 22:59:35 22° SW
Meteor 2-4 Rocket 3.6 23:00:13 37° S 23:02:29 87° E 23:08:04 10° NNE
BlueWalker 3 2.4 23:05:22 39° ESE 23:05:22 39° ESE 23:08:02 10° ENE
Cosmos 2263 Rocket 3.1 23:03:56 27° SE 23:05:55 35° ESE 23:10:55 10° NE
CZ-2C R/B 3.3 23:00:51 10° NNE 23:06:38 78° WNW 23:09:26 32° SSW
Cosmos 1125 Rocket 4.1 23:03:47 10° NNW 23:09:00 56° ENE 23:12:45 19° SE
Cosmos 1766 Rocket 3.8 23:04:56 10° NNW 23:09:07 52° W 23:10:08 42° SW
Cosmos 1758 3.7 23:06:43 10° N 23:10:15 49° ENE 23:11:14 37° ESE
Cosmos 1238 Rocket 3.2 23:14:04 41° SW 23:15:12 57° WNW 23:19:36 10° N
Cosmos 1655 Rocket 4.2 23:15:09 10° NNW 23:21:17 61° W 23:24:15 31° SSW
SWARM C 4.3 23:19:35 10° N 23:22:50 88° W 23:23:05 75° S
SWARM A 4.0 23:19:41 10° N 23:22:57 78° E 23:23:16 68° SE
Cosmos 1814 Rocket 3.9 23:21:58 37° SSW 23:24:06 85° ESE 23:29:24 10° NNE
Alouette 2 Rocket 4.2 23:23:29 10° NNW 23:27:09 43° W 23:28:18 35° SW
Meteor 2-11 Rocket 4.4 23:22:04 10° NNW 23:28:12 73° W 23:31:13 31° S
Meteor 1-27 Rocket 4.4 23:25:49 26° SW 23:28:53 49° WNW 23:34:25 10° N
Meteor 2-10 Rocket 3.8 23:24:17 10° NNW 23:29:44 62° W 23:32:13 33° SSW
Cosmos 1340 Rocket 3.2 23:27:29 10° N 23:31:16 55° ENE 23:32:47 32° SE
Cosmos 2297 Rocket 2.7 23:27:59 22° WSW 23:31:33 54° NW 23:37:06 10° NNE
CENTAUR R/B 4.2 23:31:16 11° SE 23:34:05 15° ESE 23:37:37 10° ENE
Cosmos 1151 Rocket 3.4 23:34:52 34° SSE 23:36:27 54° E 23:40:40 10° NNE
BREEZE-M DEB (TANK) 3.8 23:39:17 27° SE 23:39:17 27° SE 23:42:06 10° ESE
DELTA 2 DEB (DPAF) 3.5 23:34:42 10° NNE 23:38:17 76° ESE 23:39:02 52° S
SL-14 R/B 3.1 23:39:49 49° SSW 23:40:46 86° W 23:44:35 10° N
CZ-4C R/B 2.9 23:37:42 10° NNE 23:41:06 79° WNW 23:41:47 54° SSW
Cosmos 1244 Rocket 4.5 23:35:26 10° NNW 23:41:35 70° W 23:44:47 29° S
Cosmos 158 Rocket 4.2 23:39:40 29° SW 23:42:22 65° WNW 23:47:41 10° NNE
ACS3 Solar Sail 1.7 23:36:55 10° NNE 23:42:55 79° ESE 23:46:10 29° S
Cosmos 1953 3.9 23:41:14 10° N 23:44:24 27° ENE 23:46:58 13° SE
Landsat 5 3.8 23:43:07 10° N 23:47:07 53° WNW 23:48:28 35° SW
Cosmos 1500 Rocket 3.5 23:44:36 10° N 23:49:04 89° WSW 23:50:58 34° S
IDEFIX/ARIANE 42P 3.8 23:44:41 10° NNE 23:49:23 33° E 23:52:42 17° SSE
Cosmos 1703 4.1 23:54:48 26° SE 23:55:45 31° E 23:58:39 10° NNE
